User: anonymous   Login
Location: Ar Ranvel
(48.3000°N, 4.8833°W)
Time: 20:42:53
(UTC+00:00)
Language:

ALOS 2 - Orbit

View from above orbital plane
View from above orbital plane
View from above satellite
View from above satellite

Ground track
Ground track

The orbit data is extracted from the following two-line orbital elements,

1 39766U 14029A   21270.44834301 -.00000047  00000-0  52162-6 0  9990
2 39766  97.9223   6.3509 0001465  88.9984 271.1383 14.79471385396743
Epoch (UTC): 27 September 2021 10:45:36
Eccentricity: 0.0001465
inclination: 97.9223°
perigee height: 630 km
apogee height: 632 km
right ascension of ascending node: 6.3509°
argument of perigee: 88.9984°
revolutions per day: 14.79471385
mean anomaly at epoch: 271.1383°
orbit number at epoch: 39674

The dashed part of the orbit path shows where the satellite is in the earth's shadow,  

DLR